Location: Minneapolis
(44.9800°N, 93.2640°W)
Time: 00:24:58
(UTC-05:00)

Iridium 96 - Visible Passes

Search period start: 24 June 2018 00:00
Search period end: 04 July 2018 00:00
Orbit: 286 x 680 km, 86.4° (Epoch: 23 June)

Date Brightness Start Highest point End Pass type
(mag) Time Alt. Az. Time Alt. Az. Time Alt. Az.
24 Jun 6.8 04:08:07 10° NNE 04:10:20 18° ENE 04:12:23 10° SE visible
25 Jun 7.5 03:44:43 10° ENE 03:45:01 10° ENE 03:45:19 10° ENE visible
26 Jun 4.0 04:51:59 10° N 04:54:52 55° W 04:57:26 10° S visible
27 Jun 4.2 04:26:50 10° N 04:29:42 64° E 04:32:15 10° SSE visible
28 Jun 5.7 04:01:54 10° NNE 04:04:25 29° E 04:06:42 10° SE visible
29 Jun 6.7 03:37:19 10° NE 03:39:01 15° ENE 03:40:37 10° ESE visible
30 Jun 4.9 04:46:04 10° NNW 04:48:23 26° W 04:50:33 10° SSW visible
01 Jul 3.7 04:20:32 10° N 04:23:09 59° W 04:25:19 12° S visible
02 Jul 4.2 03:55:13 10° N 03:57:47 54° E 03:59:40 15° SSE visible
03 Jul 5.8 03:30:08 10° NNE 03:32:19 24° E 03:33:59 13° SE visible
